Location: Albuquerque Trailhead
(34.7934°N, 106.3736°W)
Time: 23:53:03
(UTC+00:00)

USA 229 DEB - Pass Details

Date: 20 June 2021
Orbit: 955 x 1257 km, 63.4° (Epoch: 25 July)

Event Time Altitude Azimuth Distance (km) Brightness Sun altitude
Exits shadow 07:32:03 62° 298° (WNW) 1,109 3.7 -31.5°
Maximum altitude 07:32:10 62° 304° (NW) 1,109 3.7 -31.5°
Drops below altitude 10° 07:38:46 10° 25° (NNE) 2,855 6.8 -31.3°
Sets 07:41:32 0° 29° (NNE) 3,856 7.6 -31.2°
